Location: Unspecified
(49.2170°N, 0.0000°E)
Time: 06:07:51
(UTC+00:00)

Transit 2A - Pass Details

Date: 20 June 2019
Orbit: 594 x 965 km, 66.7° (Epoch: 15 July)

Event Time Altitude Azimuth Distance (km) Brightness Sun altitude
Rises 23:16:38 0° 166° (SSE) 3,616 - -16.7°
Reaches altitude 10° 23:19:48 10° 151° (SSE) 2,692 - -16.7°
Exits shadow 23:22:07 17° 132° (SE) 2,207 7.9 -16.8°
Maximum altitude 23:24:19 21° 106° (ESE) 2,027 7.9 -16.9°
Drops below altitude 10° 23:28:48 10° 60° (ENE) 2,681 9.1 -17.0°
Sets 23:31:56 0° 45° (NE) 3,597 10.0 -17.0°
